[Date Prev][Date Next][Thread Prev][Thread Next] - [Date Index][Thread Index][Author Index]
2 Line ISS Keps 10-18
- Subject: [sarex] 2 Line ISS Keps 10-18
- From: "Dave Larsen PhD" <doc@xxxxxxxxxxx>
- Date: Sat, 18 Oct 2003 08:29:10 -0700
ISS
1 25544U 98067A 03291.50122819 .00016298 00000-0 18464-3 0 6611
2 25544 51.6301 118.7356 0006489 51.0875 349.8556 15.62539045280271
----
Via the sarex mailing list at AMSAT.ORG courtesy of AMSAT-NA.
To unsubscribe, send "unsubscribe sarex" to Majordomo@amsat.org
AMSAT Home